EJA735 KDWH-KRVS

Flight info

Callsign EJA735
Flight time N/A
Altitude 43000
Route STYCK8 WTSON BYP/N0468F410
Aircraft CL35/M-SDFGIRW/S

Departure

Time 2026-05-09 01:38
Airport David Wayne Hooks Memorial Airport (KDWH)

Arrival

Time N/A
Airport Tulsa Riverside Airport (KRVS)
Time Latitude Longitude Altitude Speed Heading
2026-05-09 01:14 30.06961 -95.55281 147 ft 0 kts
2026-05-09 01:29 30.06963 -95.55281 147 ft 3 kts
2026-05-09 01:29 30.06990 -95.55305 146 ft 8 kts 275°
2026-05-09 01:30 30.06990 -95.55354 146 ft 0 kts 269°
2026-05-09 01:32 30.06990 -95.55359 146 ft 5 kts 270°
2026-05-09 01:33 30.06947 -95.55425 145 ft 17 kts 173°
2026-05-09 01:33 30.06790 -95.55399 145 ft 28 kts 174°
2026-05-09 01:33 30.06570 -95.55369 144 ft 34 kts 174°
2026-05-09 01:33 30.06332 -95.55333 145 ft 35 kts 174°
2026-05-09 01:34 30.06095 -95.55301 148 ft 34 kts 171°
2026-05-09 01:34 30.05858 -95.55261 149 ft 35 kts 172°
2026-05-09 01:34 30.05650 -95.55235 151 ft 28 kts 173°
2026-05-09 01:34 30.05486 -95.55214 147 ft 23 kts 179°
2026-05-09 01:35 30.05432 -95.55204 146 ft 1 kts 71°
2026-05-09 01:35 30.05442 -95.55204 146 ft 0 kts 351°
2026-05-09 01:37 30.05454 -95.55206 146 ft 7 kts 352°
2026-05-09 01:37 30.05771 -95.55252 149 ft 109 kts 353°
2026-05-09 01:37 30.06733 -95.55400 153 ft 207 kts 355°
2026-05-09 01:37 30.06979 -95.55437 303 ft 207 kts 354°
2026-05-09 01:38 30.08493 -95.55480 1479 ft 229 kts
2026-05-09 01:38 30.10243 -95.55380 2376 ft 279 kts
2026-05-09 01:38 30.11627 -95.55298 2254 ft 323 kts
2026-05-09 01:38 30.13746 -95.55158 2061 ft 269 kts
2026-05-09 01:39 30.15455 -95.55077 1951 ft 226 kts
2026-05-09 01:39 30.17150 -95.55017 1910 ft 278 kts
2026-05-09 01:39 30.19161 -95.54944 1925 ft 269 kts